Time,TemperatureF,DewpointF,PressureIn,WindDirection,WindDirectionDegrees,WindSpeedMPH,WindSpeedGustMPH,Humidity,HourlyPrecipIn,Conditions,Clouds,dailyrainin,SoftwareType,DateUTC
2013-01-10 00:03:00,40.0,30.0,29.95,ENE,70,7.0,27.0,67,0.02,,,0.03,,2013-01-10 05:03:00,
2013-01-10 00:12:00,40.0,30.0,29.95,ENE,70,7.0,27.0,67,0.02,,,0.03,,2013-01-10 05:12:00,
2013-01-10 00:22:00,40.0,30.0,29.96,NW,312,9.0,16.0,67,0.02,,,0.03,,2013-01-10 05:22:00,
2013-01-10 00:33:00,39.0,29.0,29.98,NW,317,15.0,28.0,68,0.01,,,0.03,,2013-01-10 05:33:00,
2013-01-10 00:43:00,39.0,29.0,29.98,NW,317,15.0,28.0,68,0.01,,,0.03,,2013-01-10 05:43:00,
2013-01-10 00:53:00,38.0,30.0,29.98,West,273,8.0,31.0,74,0.02,,,0.04,,2013-01-10 05:53:00,
2013-01-10 01:02:00,37.0,31.0,30.02,WNW,284,14.0,24.0,78,0.02,,,0.05,,2013-01-10 06:02:00,
2013-01-10 01:12:00,37.0,31.0,30.02,WNW,284,14.0,24.0,78,0.02,,,0.05,,2013-01-10 06:12:00,
2013-01-10 01:22:00,37.0,31.0,30.03,WNW,302,7.0,26.0,79,0.02,,,0.05,,2013-01-10 06:22:00,
2013-01-10 01:32:00,37.0,30.0,30.04,NW,317,7.0,24.0,77,0.02,,,0.05,,2013-01-10 06:32:00,
2013-01-10 01:42:00,37.0,30.0,30.04,NW,317,7.0,24.0,77,0.02,,,0.05,,2013-01-10 06:42:00,
2013-01-10 01:52:00,37.0,29.0,30.05,WNW,295,12.0,26.0,74,0.00,,,0.00,,2013-01-10 06:52:00,
2013-01-10 02:02:00,37.0,29.0,30.06,North,355,5.0,18.0,72,0.00,,,0.00,,2013-01-10 07:02:00,
2013-01-10 02:12:00,37.0,29.0,30.06,North,355,5.0,18.0,72,0.00,,,0.00,,2013-01-10 07:12:00,
2013-01-10 02:22:00,37.0,28.0,30.08,NNE,22,5.0,23.0,70,0.00,,,0.00,,2013-01-10 07:22:00,
2013-01-10 02:32:00,37.0,28.0,30.09,North,360,6.0,13.0,69,0.00,,,0.00,,2013-01-10 07:32:00,
2013-01-10 02:42:00,37.0,28.0,30.09,North,360,6.0,13.0,69,0.00,,,0.00,,2013-01-10 07:42:00,
2013-01-10 02:52:00,38.0,28.0,30.11,NNW,344,8.0,23.0,66,0.00,,,0.00,,2013-01-10 07:52:00,
2013-01-10 03:02:00,38.0,28.0,30.12,North,360,4.0,20.0,66,0.00,,,0.00,,2013-01-10 08:02:00,
2013-01-10 03:12:00,38.0,28.0,30.12,North,360,4.0,20.0,66,0.00,,,0.00,,2013-01-10 08:12:00,
2013-01-10 03:22:00,37.0,27.0,30.13,NNW,333,7.0,19.0,66,0.00,,,0.00,,2013-01-10 08:22:00,
2013-01-10 03:32:00,37.0,26.0,30.15,NNW,339,11.0,21.0,65,0.00,,,0.00,,2013-01-10 08:32:00,
2013-01-10 03:42:00,37.0,26.0,30.15,NNW,339,11.0,21.0,65,0.00,,,0.00,,2013-01-10 08:42:00,
2013-01-10 03:53:00,37.0,26.0,30.16,NE,55,6.0,26.0,65,0.00,,,0.00,,2013-01-10 08:53:00,
2013-01-10 04:02:00,37.0,26.0,30.16,NNW,334,10.0,18.0,65,0.00,,,0.00,,2013-01-10 09:02:00,
2013-01-10 04:12:00,37.0,26.0,30.16,NNW,334,10.0,18.0,65,0.00,,,0.00,,2013-01-10 09:12:00,
2013-01-10 04:22:00,37.0,26.0,30.18,WNW,302,3.0,18.0,64,0.00,,,0.00,,2013-01-10 09:22:00,
2013-01-10 04:32:00,37.0,26.0,30.19,NNE,17,9.0,19.0,64,0.00,,,0.00,,2013-01-10 09:32:00,
2013-01-10 04:42:00,37.0,26.0,30.19,NNE,17,9.0,19.0,64,0.00,,,0.00,,2013-01-10 09:42:00,
2013-01-10 04:53:00,37.0,26.0,30.19,NNE,19,12.0,21.0,64,0.00,,,0.00,,2013-01-10 09:53:00,
2013-01-10 05:03:00,37.0,26.0,30.20,WNW,285,8.0,22.0,64,0.00,,,0.00,,2013-01-10 10:03:00,
2013-01-10 05:12:00,37.0,26.0,30.20,WNW,285,8.0,22.0,64,0.00,,,0.00,,2013-01-10 10:12:00,
2013-01-10 05:22:00,36.0,25.0,30.20,North,9,1.0,22.0,65,0.00,,,0.00,,2013-01-10 10:22:00,
2013-01-10 05:32:00,36.0,25.0,30.21,North,350,10.0,22.0,65,0.00,,,0.00,,2013-01-10 10:32:00,
2013-01-10 05:42:00,36.0,25.0,30.21,North,350,10.0,22.0,65,0.00,,,0.00,,2013-01-10 10:42:00,
2013-01-10 05:53:00,36.0,26.0,30.22,NW,307,6.0,26.0,66,0.00,,,0.00,,2013-01-10 10:53:00,
2013-01-10 06:02:00,35.0,25.0,30.22,NE,46,5.0,16.0,66,0.00,,,0.00,,2013-01-10 11:02:00,
2013-01-10 06:12:00,35.0,25.0,30.22,NE,46,5.0,16.0,66,0.00,,,0.00,,2013-01-10 11:12:00,
2013-01-10 06:22:00,35.0,25.0,30.22,NW,308,6.0,14.0,67,0.00,,,0.00,,2013-01-10 11:22:00,
2013-01-10 06:33:00,35.0,25.0,30.23,NNW,332,6.0,12.0,67,0.00,,,0.00,,2013-01-10 11:33:00,
2013-01-10 06:43:00,35.0,25.0,30.23,NNW,332,6.0,12.0,67,0.00,,,0.00,,2013-01-10 11:43:00,
2013-01-10 06:53:00,35.0,25.0,30.23,NE,38,8.0,15.0,67,0.00,,,0.00,,2013-01-10 11:53:00,
2013-01-10 07:03:00,35.0,25.0,30.24,North,355,8.0,13.0,67,0.00,,,0.00,,2013-01-10 12:03:00,
2013-01-10 07:12:00,35.0,25.0,30.24,North,355,8.0,13.0,67,0.00,,,0.00,,2013-01-10 12:12:00,
2013-01-10 07:22:00,35.0,25.0,30.25,NNW,327,11.0,19.0,67,0.00,,,0.00,,2013-01-10 12:22:00,
2013-01-10 07:33:00,35.0,25.0,30.26,NNW,348,12.0,33.0,67,0.00,,,0.00,,2013-01-10 12:33:00,
2013-01-10 07:43:00,35.0,25.0,30.26,NNW,348,12.0,33.0,67,0.00,,,0.00,,2013-01-10 12:43:00,
2013-01-10 07:53:00,35.0,26.0,30.27,North,360,5.0,21.0,68,0.00,,,0.00,,2013-01-10 12:53:00,
2013-01-10 08:02:00,35.0,26.0,30.28,NNE,15,10.0,25.0,68,0.00,,,0.00,,2013-01-10 13:02:00,
2013-01-10 08:12:00,35.0,26.0,30.28,NNE,15,10.0,25.0,68,0.00,,,0.00,,2013-01-10 13:12:00,
2013-01-10 08:22:00,35.0,26.0,30.28,NW,318,9.0,29.0,68,0.01,,,0.01,,2013-01-10 13:22:00,
2013-01-10 08:32:00,35.0,26.0,30.29,NNW,327,4.0,23.0,69,0.01,,,0.01,,2013-01-10 13:32:00,
2013-01-10 08:42:00,35.0,26.0,30.29,NNW,327,4.0,23.0,69,0.01,,,0.01,,2013-01-10 13:42:00,
2013-01-10 08:53:00,35.0,26.0,30.30,NE,41,4.0,14.0,68,0.01,,,0.01,,2013-01-10 13:53:00,
2013-01-10 09:02:00,35.0,26.0,30.31,North,355,4.0,20.0,69,0.01,,,0.01,,2013-01-10 14:02:00,
2013-01-10 09:12:00,35.0,26.0,30.31,North,355,4.0,20.0,69,0.01,,,0.01,,2013-01-10 14:12:00,
2013-01-10 09:22:00,35.0,26.0,30.32,North,10,2.0,10.0,68,0.00,,,0.01,,2013-01-10 14:22:00,
2013-01-10 09:33:00,35.0,26.0,30.33,East,98,1.0,14.0,68,0.00,,,0.01,,2013-01-10 14:33:00,
2013-01-10 09:43:00,35.0,26.0,30.33,East,98,1.0,14.0,68,0.00,,,0.01,,2013-01-10 14:43:00,
2013-01-10 09:53:00,35.0,25.0,30.34,NNE,15,6.0,24.0,67,0.00,,,0.01,,2013-01-10 14:53:00,
2013-01-10 10:03:00,35.0,25.0,30.36,NE,45,11.0,19.0,67,0.00,,,0.01,,2013-01-10 15:03:00,
2013-01-10 10:12:00,35.0,25.0,30.36,NE,45,11.0,19.0,67,0.00,,,0.01,,2013-01-10 15:12:00,
2013-01-10 10:23:00,36.0,26.0,30.36,North,5,10.0,26.0,66,-99.99,,,-99.99,,2013-01-10 15:23:00,
2013-01-10 10:33:00,36.0,26.0,30.37,SSE,167,1.0,7.0,67,-99.99,,,-99.99,,2013-01-10 15:33:00,
2013-01-10 10:43:00,36.0,26.0,30.37,SSE,167,1.0,7.0,67,-99.99,,,-99.99,,2013-01-10 15:43:00,
2013-01-10 10:53:00,36.0,26.0,30.38,ENE,71,4.0,11.0,66,-99.99,,,-99.99,,2013-01-10 15:53:00,
2013-01-10 11:03:00,36.0,26.0,30.39,NW,323,2.0,11.0,66,-99.99,,,-99.99,,2013-01-10 16:03:00,
2013-01-10 11:13:00,36.0,26.0,30.39,NW,323,2.0,11.0,66,-99.99,,,-99.99,,2013-01-10 16:13:00,
2013-01-10 11:23:00,36.0,25.0,30.40,South,190,5.0,7.0,65,0.00,,,-99.99,,2013-01-10 16:23:00,
2013-01-10 11:33:00,36.0,25.0,30.40,NW,304,3.0,12.0,65,0.00,,,-99.99,,2013-01-10 16:33:00,
2013-01-10 11:43:00,36.0,25.0,30.40,NW,304,3.0,12.0,65,0.00,,,-99.99,,2013-01-10 16:43:00,
2013-01-10 11:53:00,36.0,25.0,30.40,ENE,69,2.0,16.0,65,0.00,,,-99.99,,2013-01-10 16:53:00,
2013-01-10 12:03:00,36.0,25.0,30.40,NNW,337,6.0,11.0,65,0.00,,,-99.99,,2013-01-10 17:03:00,
2013-01-10 12:12:00,36.0,25.0,30.40,NNW,337,6.0,11.0,65,0.00,,,-99.99,,2013-01-10 17:12:00,
2013-01-10 12:22:00,36.0,25.0,30.40,North,5,9.0,14.0,65,0.00,,,-99.99,,2013-01-10 17:22:00,
2013-01-10 12:33:00,36.0,25.0,30.40,NE,34,5.0,13.0,65,0.00,,,-99.99,,2013-01-10 17:33:00,
2013-01-10 12:42:00,36.0,25.0,30.40,NE,34,5.0,13.0,65,0.00,,,-99.99,,2013-01-10 17:42:00,
2013-01-10 12:53:00,37.0,26.0,30.40,NE,41,7.0,18.0,65,0.00,,,-99.99,,2013-01-10 17:53:00,
2013-01-10 13:03:00,37.0,26.0,30.40,NNW,347,9.0,18.0,64,0.00,,,-99.99,,2013-01-10 18:03:00,
2013-01-10 13:12:00,36.0,25.0,30.40,NW,304,9.0,21.0,64,0.00,,,-99.99,,2013-01-10 18:12:00,
2013-01-10 13:23:00,36.0,25.0,30.40,NW,304,9.0,21.0,64,0.00,,,-99.99,,2013-01-10 18:23:00,
2013-01-10 13:33:00,36.0,25.0,30.41,North,355,7.0,19.0,65,0.00,,,-99.99,,2013-01-10 18:33:00,
2013-01-10 13:43:00,37.0,26.0,30.42,WNW,293,4.0,14.0,65,0.00,,,-99.99,,2013-01-10 18:43:00,
2013-01-10 13:53:00,37.0,26.0,30.42,WNW,293,4.0,14.0,65,0.00,,,-99.99,,2013-01-10 18:53:00,
2013-01-10 14:03:00,37.0,26.0,30.42,ENE,74,6.0,11.0,63,0.00,,,-99.99,,2013-01-10 19:03:00,
2013-01-10 14:13:00,37.0,25.0,30.43,NW,315,9.0,14.0,62,0.00,,,-99.99,,2013-01-10 19:13:00,
2013-01-10 14:23:00,37.0,25.0,30.43,NW,315,9.0,14.0,62,0.00,,,-99.99,,2013-01-10 19:23:00,
2013-01-10 14:33:00,37.0,25.0,30.44,North,360,8.0,12.0,62,0.00,,,-99.99,,2013-01-10 19:33:00,
2013-01-10 14:43:00,37.0,25.0,30.44,North,360,8.0,12.0,62,0.00,,,-99.99,,2013-01-10 19:43:00,
2013-01-10 14:53:00,37.0,25.0,30.45,NNE,32,8.0,11.0,62,0.00,,,-99.99,,2013-01-10 19:53:00,
2013-01-10 15:03:00,37.0,25.0,30.45,NW,319,9.0,14.0,62,0.00,,,-99.99,,2013-01-10 20:03:00,
2013-01-10 15:13:00,36.0,25.0,30.45,West,281,3.0,7.0,63,0.00,,,-99.99,,2013-01-10 20:13:00,
2013-01-10 15:24:00,36.0,25.0,30.45,West,281,3.0,7.0,63,0.00,,,-99.99,,2013-01-10 20:24:00,
2013-01-10 15:33:00,36.0,25.0,30.46,NW,308,3.0,5.0,64,0.00,,,-99.99,,2013-01-10 20:33:00,
2013-01-10 15:43:00,36.0,25.0,30.46,NW,308,3.0,5.0,64,0.00,,,-99.99,,2013-01-10 20:43:00,
2013-01-10 15:53:00,36.0,25.0,30.47,NNE,18,3.0,7.0,65,0.00,,,-99.99,,2013-01-10 20:53:00,
2013-01-10 16:04:00,36.0,25.0,30.48,NNW,348,3.0,7.0,65,0.00,,,-99.99,,2013-01-10 21:04:00,
2013-01-10 16:13:00,35.0,25.0,30.47,NE,46,2.0,10.0,66,0.00,,,-99.99,,2013-01-10 21:13:00,
2013-01-10 16:23:00,35.0,25.0,30.47,NE,46,2.0,10.0,66,0.00,,,-99.99,,2013-01-10 21:23:00,
2013-01-10 16:33:00,35.0,25.0,30.49,NNW,334,3.0,8.0,67,0.00,,,-99.99,,2013-01-10 21:33:00,
2013-01-10 16:43:00,35.0,25.0,30.49,NNW,334,3.0,8.0,67,0.00,,,-99.99,,2013-01-10 21:43:00,
2013-01-10 16:53:00,34.0,25.0,30.49,NNW,341,0.0,7.0,69,0.00,,,-99.99,,2013-01-10 21:53:00,
2013-01-10 17:03:00,33.0,24.0,30.49,NW,325,3.0,9.0,70,0.00,,,-99.99,,2013-01-10 22:03:00,
2013-01-10 17:13:00,33.0,25.0,30.50,ENE,74,0.0,2.0,72,0.00,,,-99.99,,2013-01-10 22:13:00,
2013-01-10 17:26:00,33.0,25.0,30.50,ENE,74,0.0,2.0,72,0.00,,,-99.99,,2013-01-10 22:26:00,
2013-01-10 17:33:00,32.0,25.0,30.50,ESE,115,0.0,7.0,74,0.00,,,-99.99,,2013-01-10 22:33:00,
2013-01-10 17:43:00,32.0,25.0,30.50,ESE,115,0.0,7.0,74,0.00,,,-99.99,,2013-01-10 22:43:00,
2013-01-10 18:03:00,29.0,23.0,30.52,East,80,0.0,2.0,77,0.00,,,-99.99,,2013-01-10 23:03:00,
2013-01-10 18:13:00,28.0,23.0,30.52,East,80,1.0,2.0,80,0.00,,,-99.99,,2013-01-10 23:13:00,
2013-01-10 18:23:00,28.0,23.0,30.52,East,80,1.0,2.0,80,0.00,,,-99.99,,2013-01-10 23:23:00,
2013-01-10 18:33:00,27.0,22.0,30.50,East,80,0.0,2.0,81,0.00,,,-99.99,,2013-01-10 23:33:00,
2013-01-10 18:43:00,27.0,22.0,30.50,East,80,0.0,2.0,81,0.00,,,-99.99,,2013-01-10 23:43:00,
2013-01-10 18:53:00,26.0,22.0,30.51,East,80,1.0,4.0,83,0.00,,,-99.99,,2013-01-10 23:53:00,
2013-01-10 19:03:00,26.0,22.0,30.50,East,79,0.0,3.0,85,0.00,,,-99.99,,2013-01-11 00:03:00,
2013-01-10 19:13:00,26.0,22.0,30.51,NE,34,0.0,4.0,85,0.00,,,-99.99,,2013-01-11 00:13:00,
2013-01-10 19:23:00,26.0,22.0,30.51,NE,34,0.0,4.0,85,0.00,,,-99.99,,2013-01-11 00:23:00,
2013-01-10 19:33:00,26.0,22.0,30.52,ENE,64,0.0,4.0,86,0.00,,,-99.99,,2013-01-11 00:33:00,
2013-01-10 19:43:00,26.0,22.0,30.52,ENE,64,0.0,4.0,86,0.00,,,-99.99,,2013-01-11 00:43:00,
2013-01-10 19:53:00,27.0,23.0,30.52,North,350,2.0,6.0,86,0.00,,,-99.99,,2013-01-11 00:53:00,
2013-01-10 20:03:00,29.0,25.0,30.51,NNE,26,0.0,7.0,84,0.00,,,-99.99,,2013-01-11 01:03:00,
2013-01-10 20:13:00,30.0,25.0,30.51,NE,42,0.0,8.0,80,0.00,,,-99.99,,2013-01-11 01:13:00,
2013-01-10 20:23:00,30.0,25.0,30.51,NE,42,0.0,8.0,80,0.00,,,-99.99,,2013-01-11 01:23:00,
2013-01-10 20:34:00,31.0,25.0,30.51,NE,46,0.0,1.0,78,0.00,,,-99.99,,2013-01-11 01:34:00,
2013-01-10 20:43:00,31.0,25.0,30.51,NE,46,0.0,1.0,78,0.00,,,-99.99,,2013-01-11 01:43:00,
2013-01-10 20:53:00,31.0,25.0,30.51,NNW,346,0.0,5.0,78,0.00,,,-99.99,,2013-01-11 01:53:00,
2013-01-10 21:03:00,30.0,24.0,30.51,NNE,17,2.0,6.0,79,0.00,,,-99.99,,2013-01-11 02:03:00,
2013-01-10 21:13:00,30.0,24.0,30.51,NNE,17,2.0,6.0,79,0.00,,,-99.99,,2013-01-11 02:13:00,
2013-01-10 21:23:00,30.0,25.0,30.52,NNE,28,0.0,2.0,81,0.00,,,-99.99,,2013-01-11 02:23:00,
2013-01-10 21:33:00,29.0,24.0,30.52,NNE,28,0.0,2.0,81,0.00,,,-99.99,,2013-01-11 02:33:00,
2013-01-10 21:43:00,29.0,24.0,30.52,NNE,28,0.0,2.0,81,0.00,,,-99.99,,2013-01-11 02:43:00,
2013-01-10 21:54:00,28.0,24.0,30.52,NNE,28,0.0,2.0,83,0.00,,,-99.99,,2013-01-11 02:54:00,
2013-01-10 22:03:00,27.0,23.0,30.52,NNE,15,1.0,5.0,84,0.00,,,-99.99,,2013-01-11 03:03:00,
2013-01-10 22:12:00,27.0,23.0,30.51,NNW,342,0.0,5.0,84,0.00,,,-99.99,,2013-01-11 03:12:00,
2013-01-10 22:23:00,27.0,23.0,30.51,NNW,342,0.0,5.0,84,0.00,,,-99.99,,2013-01-11 03:23:00,
2013-01-10 22:33:00,27.0,23.0,30.51,NNW,341,0.0,1.0,85,0.00,,,-99.99,,2013-01-11 03:33:00,
2013-01-10 22:43:00,27.0,23.0,30.51,NNW,341,0.0,1.0,85,0.00,,,-99.99,,2013-01-11 03:43:00,
2013-01-10 22:53:00,27.0,23.0,30.51,NNW,341,0.0,0.0,84,0.00,,,-99.99,,2013-01-11 03:53:00,
2013-01-10 23:02:00,26.0,22.0,30.50,NNW,341,0.0,0.0,85,0.00,,,-99.99,,2013-01-11 04:02:00,
2013-01-10 23:12:00,26.0,22.0,30.50,NNW,341,0.0,0.0,85,0.00,,,-99.99,,2013-01-11 04:12:00,
2013-01-10 23:22:00,26.0,22.0,30.51,NNW,341,0.0,0.0,84,0.00,,,-99.99,,2013-01-11 04:22:00,
2013-01-10 23:33:00,25.0,21.0,30.51,NNW,342,0.0,0.0,85,0.00,,,-99.99,,2013-01-11 04:33:00,
2013-01-10 23:43:00,25.0,21.0,30.51,NNW,342,0.0,0.0,85,0.00,,,-99.99,,2013-01-11 04:43:00,
2013-01-10 23:52:00,24.0,20.0,30.52,NNW,342,0.0,0.0,86,0.00,,,-99.99,,2013-01-11 04:52:00,